Content
SEND FEEDBACK

Daily
Averages
Monthly
Summary
United States of America

BEN WHEELER, TEXAS


Home > North America > United States > Texas
Elevation: 490 feet     Latitude: 32 23N     Longitude: 095 38W

WEATHER
 
SELECT A DAY
Number of Records: 188,768;   Date Range: 1/1/95 - 7/26/14
 
SHARE

PRINT THIS DATA

[ ← Previous Day ]
WEATHER ALMANAC - JANUARY 23, 2013
[ Next Day → ]
[ °C ]   °F
Weather ElementAverageHighLow
Temperature59.3 °F72 °F (2:53 pm)48 °F (4:53 am)
Dewpoint48.9 °F53.1 °F (10:53 am)45 °F (3:53 am)
Humidity70.7 %93 % (7:53 am)44 % (1:53 pm)
Barometer26.30 in30.32 in (9:53 am) (7:00 pm)
Wind Speed9.7 mph13.8 mph (10:53 am)
Wind Gust19.6 mph (2:53 pm)
Weather ElementAverage
Visibility9.9 mi
Wind DirectionSSW (190 °)

Weather ElementTotal
Precipitation---
Heating Degree Days5 (Base 65)
Growing Degree Days10 (Base 50)
Averaged from 23 records on January 23, 2013
WEATHER CONDITIONS BREAKOUT
WIND DIRECTION BREAKOUT
WEATHER BY HOUR - JANUARY 23, 2013
[ °C ]   °F
Local TimeTemperatureDewpointHumidityBarometerVisibilityWind DirectionWind SpeedGust SpeedPrecipitationEventsConditions
1:53 AM51.1 °F46.0 °F83 %30.25 in10.0 miSouth (190°)9.2 mphClear
2:53 AM50.0 °F46.0 °F86 %30.26 in10.0 miSouth (170°)9.2 mphClear
3:53 AM48.9 °F45.0 °F86 %30.26 in10.0 miSouth (180°)8.1 mphClear
4:53 AM48.0 °F45.0 °F89 %30.27 in10.0 miSouth (180°)6.9 mphClear
5:53 AM48.0 °F45.0 °F89 %30.29 in10.0 miSouth (170°)6.9 mphMostly Cloudy
6:53 AM48.0 °F45.0 °F89 %30.28 in9.0 miSouth (180°)8.1 mphPartly Cloudy
7:53 AM48.0 °F46.0 °F93 %30.30 in8.0 miSouth (170°)8.1 mphClear
8:53 AM53.1 °F48.9 °F86 %30.30 in10.0 miSouth (190°)10.4 mphClear
9:53 AM59.0 °F52.0 °F78 %30.32 in10.0 miSSW (210°)12.7 mphClear
10:53 AM63.0 °F53.1 °F70 %30.32 in10.0 miSSW (210°)13.8 mphClear
11:53 AM68.0 °F52.0 °F56 %30.30 in10.0 miSW (220°)12.7 mphClear
12:53 PM69.1 °F50.0 °F51 %30.26 in10.0 miSSW (210°)11.5 mphClear
1:53 PM71.1 °F48.0 °F44 %30.23 in10.0 miSSW (200°)9.2 mphClear
2:53 PM72.0 °F48.9 °F44 %30.22 in10.0 miSouth (190°)12.7 mph19.6 mphClear
3:53 PM72.0 °F50.0 °F46 %30.20 in10.0 miSSW (200°)13.8 mphClear
4:53 PM71.1 °F50.0 °F47 %30.19 in10.0 miSSW (200°)11.5 mphClear
5:53 PM66.0 °F50.0 °F56 %30.19 in10.0 miSouth (190°)8.1 mphClear
6:53 PM63.0 °F50.0 °F63 %30.19 in10.0 miSouth (190°)10.4 mphClear
7:53 PM60.1 °F50.0 °F69 %30.19 in10.0 miSouth (180°)8.1 mphClear
8:53 PM60.1 °F50.0 °F69 %30.19 in10.0 miSouth (190°)8.1 mphClear
9:53 PM59.0 °F51.1 °F75 %10.0 miSouth (190°)9.2 mphClear
10:53 PM59.0 °F51.1 °F75 %10.0 miSouth (190°)9.2 mphClear
11:53 PM57.0 °F51.1 °F81 %10.0 miSouth (170°)5.8 mphClear
Hourly data recorded from KTYR, located miles away from Ben Wheeler, Texas







STORIES FROM OUR PARTNERS